{"data":{"norad_id":66624,"intl_designator":"2025-271H","name":"STARLINK-35927","alt_names":[],"object_type":"PAYLOAD","status":"ACTIVE","operator":null,"country":"US","launch_date":"2025-11-23","launch_site_code":"AFWTR","launch_vehicle":null,"mission":null,"orbit_class":"UNKNOWN","rcs_meters":null,"size_class":null,"mass_kg":null,"dimensions":null,"purposes":["comms"],"wikipedia_slug":null,"has_3d_model":false,"image_url":null,"decayed_at":null,"tle_current":{"epoch":"2026-09-20T10:02:43.925280Z","epoch_age_seconds":93576,"freshness":"FRESH","line1":"1 66624U 25271H   26263.41856395  .00005933  00000+0  18668-3 0  9992","line2":"2 66624  53.1579 313.8027 0001135  80.2804 279.8327 15.34384136 47403","mean_motion":15.34384136,"eccentricity":0.0001135,"inclination_deg":53.1579,"raan_deg":313.8027,"arg_perigee_deg":80.2804,"mean_anomaly_deg":279.8327,"bstar":0.00018668,"rev_number":4740,"period_min":93.848728373453,"perigee_km":461.97395104557,"apogee_km":463.5268324835,"semimajor_km":6840.8873917645,"source":"CELESTRAK","updated_at":"2026-09-21T09:00:35.983377Z"}}}